カタログに戻る

COSMOS 2251 DEB

運用中LEO
NORAD 37530·DEBRIS·🇷🇺 Russia

打ち上げ Jun 16, 1993 から Plesetsk Cosmodrome

Loading…

次のパス (今後24時間)

TLE

最新Source: Space-Track

元期: Sep 14, 2026, 02:03 UTC

1 37530U 93036BNK 26257.08559994  .00000283  00000-0  10846-3 0  9995
2 37530  74.0365 189.2409 0027128 190.1388 182.4450 14.34790175891810

AllMySatでCOSMOS 2251 DEBをリアルタイム追跡

Download on the App Store